Regional Weather Roundup
Issued by NWS

Home | Current Version | Previous Version | Text Only | Print | Product List | Glossary On
Versions: 1 2 3 4 5 6 7 8 9 10 11 12 13 14 15 16 17 18 19 20 21 22 23 24 25 26 27
000
ASUS45 KBOU 310307
RWRCO

WEATHER ROUNDUP FOR COLORADO
NATIONAL WEATHER SERVICE DENVER/BOULDER CO
900 PM MDT MON MAY 30 2016

NOTE: "FAIR" INDICATES FEW OR NO CLOUDS BELOW 12000 FEET WITH NO
SIGNIFICANT WEATHER AND/OR OBSTRUCTIONS TO VISIBILITY.

COZ001>005-013-030-031-310400-
...NORTHWEST COLORADO...

CITY           SKY/WX    TMP DP  RH WIND       PRES   REMARKS
CRAIG          CLOUDY    58  40  51 W3        30.09R
HAYDEN         FAIR      59  34  38 CALM      30.10S
MEEKER         MOCLDY    53  42  66 NE3       30.10R
MOUNT WERNER   NOT AVBL
STEAMBOAT SPGS FAIR      56  37  49 E7        30.12S
WALDEN         NOT AVBL
$$

COZ006>008-011-310400-
...WEST CENTRAL VALLEYS...

CITY           SKY/WX    TMP DP  RH WIND       PRES   REMARKS
GRAND JUNCTION FAIR      67  32  27 E3        29.98R
MONTROSE       FAIR      63  34  33 SE15      30.07F
EAGLE          FAIR      57  36  44 SE3       30.14R
RIFLE          FAIR      57  40  52 SE6       30.05R
DELTA          FAIR      68  34  28 SE7G16    30.02S
NUCLA          FAIR      64  32  29 E14       30.09R
$$

COZ017>023-064>068-310400-
...SOUTHWEST COLORADO...

CITY           SKY/WX    TMP DP  RH WIND       PRES   REMARKS
DURANGO        FAIR      64  25  22 N18G26    30.05R
CORTEZ         FAIR      66  28  24 VRB3      30.03R
PAGOSA SPRINGS FAIR      55  25  31 NW5       30.11S
TELLURIDE      FAIR      48  31  52 CALM      30.28S
WOLF CREEK PAS FAIR      37  23  56 NE8       30.41R
$$

COZ009-010-012-014-032>034-037-058>063-310400-
...CENTRAL COLORADO...

CITY           SKY/WX    TMP DP  RH WIND       PRES   REMARKS
ASPEN          FAIR      46  38  73 S8        30.20S
BUENA VISTA    FAIR      53  30  42 NW12G20   30.20S
COPPER MTN     NOT AVBL
BERTHOUD PASS  FAIR      32  21  64 NW22G28   30.41R WCI  19
COTTONWOOD PAS FAIR      50  28  43 NW3       30.30S
GUNNISON       FAIR      54  32  43 NW5       30.21S
KREMMLING      FAIR      50  41  71 CALM      30.20R
LEADVILLE      FAIR      40  29  64 SE5       30.29F
MONARCH PASS   FAIR      36  25  64 W5        30.51R
SALIDA         FAIR      58  32  36 W6        30.25R
SUNLIGHT       FAIR      43  23  45 CALM      30.37S
WILKERSON PASS FAIR      39  27  60 NW7       30.39R
$$

COZ069>075-310400-
...SAN LUIS VALLEY/SANGRE DE CRISTO MOUNTAINS...

CITY           SKY/WX    TMP DP  RH WIND       PRES   REMARKS
ALAMOSA        FAIR      57  31  37 N15       30.14R
LA VETA PASS   MOCLDY    46  28  49 NW3       30.31R
SAGUACHE       FAIR      54  32  43 NW15G21   30.18S
$$

COZ035-036-038>040-310400-
...NORTHERN COLORADO FRONT RANGE...

CITY           SKY/WX    TMP DP  RH WIND       PRES   REMARKS
DENVER INTL AP MOCLDY    56  45  66 SW8       30.04R
DMNS CITY PARK   N/A     61  35  37 SW3       30.04R
AURORA         MOCLDY    56  43  60 S6        30.05R
FRONT RANGE AP MOCLDY    57  43  58 SW9       30.03F
ERIE MUNI ARPT FAIR      55  43  64 CALM      30.03R
BOULDER MUN AP FAIR      61  36  39 CALM      30.03R
CENTENNIAL     MOCLDY    57  40  52 S7        30.06R
BROOMFIELD     MOCLDY    63  34  34 NW8       30.05R
FORT COLLINS   FAIR      37 N/A N/A CALM      30.01R
LONGMONT       FAIR      60  42  51 W3        30.03R
$$

COZ041-046-047-076>085-087-088-310400-
...PIKES PEAK/PALMER DIVIDE AND SOUTHERN FOOTHILLS...

CITY           SKY/WX    TMP DP  RH WIND       PRES   REMARKS
COLO. SPRINGS  MOCLDY    59  39  47 NE10      30.10R
A. F. ACADEMY  MOCLDY    57  37  47 VRB6      30.09F
SCHRIEVER AFB  NOT AVBL
ELLICOTT       NOT AVBL
FALCON         FAIR      54  39  57 N5        30.14R
FORT CARSON    MOCLDY    62  40  43 N17       30.05R
LIMON          FAIR      51  45  79 CALM      30.03F
MONUMENT HILL  FAIR      50  37  62 S5        30.14F
TRINIDAD       FAIR      62  34  35 SW9       29.99R
$$

COZ042>045-048>051-090-091-310400-
...NORTHEAST COLORADO...

CITY           SKY/WX    TMP DP  RH WIND       PRES   REMARKS
GREELEY ARPT   FAIR      59  46  63 SW5       30.00R
AKRON          FAIR      54  45  71 W8        29.97S
BURLINGTON     FAIR      60  47  61 SE8       30.02R
WRAY           NOT AVBL
STERLING       FAIR      55  52  88 N3        29.94R
HOLYOKE        FAIR      63  45  51 W9        29.94R
FORT MORGAN    FAIR      53  46  77 CALM      29.98R
$$

COZ086-089-092>099-310400-
...SOUTHEAST COLORADO...

CITY           SKY/WX    TMP DP  RH WIND       PRES   REMARKS
PUEBLO         FAIR      70  42  36 N17G26    29.96R
LA JUNTA       FAIR      68  43  40 E10       29.92R
LAMAR          FAIR      72  39  30 N7        29.87F
SPRINGFIELD      N/A     60  50  69 NW3       29.92R
$$




USA.gov is the U.S. government's official web portal to all federal, state and local government web resources and services.